EHI
0 0 0 0 0 0 0 0 0 0 0 0 0 0 0 0 0 0 0 0 0 0 0 0 0 0 0 0 0 0 0 0 0 0 0 0 0 0 0 0 0 0 0 0
0 0 0 0 0 0 0 0 0 0 0 0 0 0 0 0 0 0 0 0 0 0 0 0 0 0 0 0 0 0 0 0 0 0 0 0 0 0 0 0 0 0 0 0
0 0 0 0 0 0 0 0 0 0 0 0 0 0 0 0 0 0 0 0 0 0 0 0 0 0 0 0 0 0 0 0 0 0 0 0 0 0 0 0 0 0 0 0
0 0 0 0 0 0 0 0 0 0 0 0 0 0 0 0 0 0 0 0 0 0 0 0 0 0 0 0 0 0 0 0 0 0 0 0 0 0 0 0 0 0 0 0
0 0 0 0 0 0 0 0 0 0 0 0 0 0 0 0 0 0 0 0 0 0 0 0 0 0 0 0 0 0 0 0 0 0 0 0 0 0 0 0 0 0 0 0
0 0 0 0 0 0 0 0 0 0 0 0 0 0 0 0 0 0 0 0 0 0 0 0 0 0 0 0 0 0 0 0 0 0 0 0 0 0 0 0 0 0 0 0
0 0 0 0 0 0 0 0 0 0 0 0 0 0 0 0 0 0 0 0 0 0 0 0 0 0 0 0 0 0 0 0 0 0 0 0 0 0 0 0 0 0 0 0
0 0 0 0 0 0 0 0 0 0 0 0 0 0 0 0 0 0 0 0 0 0 0 0 0 0 0 0 0 0 0 0 0 0 0 0 0 0 0 0 0 0 0 0
0 0 0 0 0 0 0 0 0 0 0 0 0 0 0 0 0 0 0 0 0 0 0 0 0 0 0 0 0 0 0 0 0 0 0 0 0 0 0 0 0 0 0 0
0 0 0 0 0 0 0 0 0 0 0 0 0 0 0 0 0 0 0 0 0 0 0 0 0 0 0 0 0 0 0 0 0 0 0 0 0 0 0 0 0 0 0 0
0 0 0 0 0 0 0 0 0 0 0 0 0 0 0 0 0 0 0 0 0 0 0 0 0 0 0 0 0 0 0 0 0 0 0 0 0 0 0 0 0 0 0 0
0 0 0 0 0 0 0 0 0 0 0 0 0 0 0 0 0 0 0 0 0 0 0 0 0 0 0 0 0 0 0 0 0 0 0 0 0 0 0 0 0 0 0 0
0 0 0 0 0 0 0 0 0 0 0 0 0 0 0 0 0 0 0 0 0 0 0 0 0 0 0 0 0 0 0 0 0 0 0 0 0 0 0 0 0 0 0 0
0 0 0 0 0 0 0 0 0 0 0 0 0 0 0 0 0 0 0 0 0 0 0 0 0 0 0 0 0 0 0 0 0 0 0 0 0 0 0 0 0 0 0 0
0 0 0 0 0 0 0 0 0 0 0 0 0 0 0 0 0 0 0 0 0 0 0 0 0 0 0 0 0 0 0 0 0 0 0 0 0 0 0 0 0 0 0 0
0 0 0 0 0 0 0 0 0 0 0 0 0 0 0 0 0 0 0 0 0 0 0 0 0 0 0 0 0 0 0 0 0 0 0 0 0 0 0 0 0 0 0 0
0 0 0 0 0 0 0 0 0 0 0 0 0 0 0 0 0 0 0 0 0 0 0 0 0 0 0 0 0 0 0 0 0 0 0 0 0 0 0 0 0 0 0 0
0 0 0 0 0 0 0 0 0 0 0 0 0 0 0 0 0 0 0 0 0 0 0 0 0 0 0 0 0 0 0 0 0 0 0 0 0 0 0 0 0 0 0 0
0 0 0 0 0 0 0 0 0 0 0 0 0 0 0 0 0 0 0 0 0 0 0 0 0 0 0 0 0 0 0 0 0 0 0 0 0 0 0 0 0 0 0 0
0 0 0 0 0 0 0 0 0 0 0 0 0 0 0 0 0 0 0 0 0 0 0 0 0 0 0 0 0 0 0 0 0 0 0 0 0 0 0 0 0 0 0 0
0 0 0 0 0 0 0 0 0 0 0 0 0 0 0 0 0 0 0 0 0 0 0 0 0 0 0 0 0 0 0 0 0 0 0 0 0 0 0 0 0 0 0 0
0 0 0 0 0 0 0 0 0 0 0 0 0 0 0 0 0 0 0 0 0 0 0 0 0 0 0 0 0 0 0 0 0 0 0 0 0 0 0 0 0 0 0 0
0 0 0 0 0 0 0 0 0 0 0 0 0 0 0 0 0 0 0 0 0 0 0 0 0 0 0 0 0 0 0 0 0 0 0 0 0 0 0 0 0 0 0 0
0 0 0 0 0 0 0 0 0 0 0 0 0 0 0 0 0 0 0 0 0 0 0 0 0 0 0 0 0 0 0 0 0 0 0 0 0 0 0 0 0 0 0 0
0 0 0 0 0 0 0 0 0 0 0 0 0 0 0 0 0 0 0 0 0 0 0 0 0 0 0 0 0 0 0 0 0 0 0 0 0 0 0 0 0 0 0 0
0 0 0 0 0 0 0 0 0 0 0 0 0 0 0 0 0 0 0 0 0 0 0 0 0 0 0 0 0 0 0 0 0 0 0 0 0 0 0 0 0 0 0 0
Wind_Speed
6 7 3 1 2 3 3 2 4 4 3 4 5 6 7 5 7 7 6 6 6 5 5 5 4 4 5 6 7 7 7 7 6 6 7 8 8 8 7 7 9 11 11 12
7 3 3 3 1 2 1 3 3 1 1 3 3 4 4 4 5 7 8 6 5 5 5 4 4 5 6 5 5 5 6 6 6 5 5 5 6 5 6 6 7 9 11 11
5 2 3 3 6 6 4 2 3 3 1 3 4 1 3 1 3 5 5 5 5 6 5 3 4 4 3 3 4 7 6 6 7 7 5 6 4 4 5 5 6 8 10 10
3 4 4 4 3 3 1 1 2 4 3 2 4 3 5 4 3 3 4 4 4 5 5 3 3 2 2 2 4 5 6 6 6 6 7 8 10 7 7 7 7 8 9 9
2 3 4 3 2 1 3 1 2 2 3 0 1 2 3 4 4 4 4 4 4 5 4 3 2 1 2 4 5 5 6 6 6 7 7 7 7 6 6 8 8 7 7 8
1 1 1 1 3 1 2 4 3 4 3 3 4 5 4 4 6 5 4 4 4 4 3 2 2 3 4 5 5 5 6 6 7 7 7 8 8 9 11 11 9 9 7 6
3 3 3 3 4 6 6 6 5 6 4 5 0 3 3 3 3 7 8 6 5 3 3 3 4 5 5 6 6 6 7 7 7 7 8 8 8 9 10 10 10 10 9 8
1 4 3 3 2 2 3 3 4 2 5 7 3 2 3 3 3 6 7 6 5 3 3 4 4 4 4 6 6 7 7 7 8 8 8 7 8 7 7 9 10 10 8 9
1 3 1 1 1 1 2 2 3 4 2 5 6 3 2 2 3 5 5 5 4 3 3 4 4 4 5 6 6 7 7 8 8 8 9 8 8 8 9 10 9 8 9 10
1 3 3 1 2 2 2 4 4 2 2 6 7 5 5 8 7 5 5 5 3 3 3 3 4 4 5 5 5 6 7 7 8 8 8 11 9 9 10 9 11 11 11 11
1 1 4 2 0 1 2 0 3 3 3 3 6 8 4 8 8 7 6 5 4 3 2 2 3 4 4 5 6 6 7 7 8 8 8 9 9 9 10 10 11 11 10 12
2 3 3 4 2 2 1 2 3 1 3 3 4 8 1 6 6 8 7 6 4 3 1 1 3 4 5 6 6 7 7 8 9 9 9 10 10 10 10 11 12 11 11 11
1 3 3 5 3 1 1 2 3 4 2 3 4 7 2 4 5 7 8 6 3 2 1 1 3 4 6 6 7 7 8 8 9 9 10 10 10 11 11 11 12 11 11 12
3 2 4 5 6 3 3 3 4 5 3 5 8 7 4 5 6 6 6 5 3 2 0 2 3 5 6 6 7 7 8 8 10 10 10 10 11 11 11 11 11 11 12 12
3 1 4 7 5 3 5 7 6 8 8 9 8 6 7 8 8 8 6 5 3 1 1 3 4 5 6 6 7 7 8 9 10 10 10 11 11 11 11 11 11 11 11 13
2 1 2 5 2 3 6 7 6 7 6 8 7 7 2 6 6 6 6 5 3 1 1 3 4 5 6 6 7 8 8 9 9 9 10 11 11 11 11 10 10 11 11 11
2 1 2 5 6 5 7 6 8 7 8 8 8 6 7 6 8 8 7 5 3 1 1 3 4 5 5 6 6 8 8 8 9 9 10 10 10 11 11 12 11 11 11 11
4 3 2 3 7 5 5 2 5 6 7 7 5 5 8 6 6 4 5 6 4 2 0 2 3 4 4 5 6 7 7 7 8 8 9 10 10 10 10 10 10 10 9 10
2 5 3 1 3 11 8 4 4 5 7 6 8 7 7 9 6 2 4 5 5 3 2 0 1 2 4 5 6 7 7 7 7 8 9 10 10 10 10 10 10 9 8 8
4 4 4 3 2 8 6 2 2 3 7 4 9 11 10 10 3 5 7 6 5 3 2 1 1 3 4 6 6 6 7 7 8 9 10 10 9 10 9 9 9 8 8 9
2 2 3 4 6 13 5 5 5 3 7 5 9 10 11 9 6 6 9 6 5 4 2 1 2 3 4 6 5 6 6 7 9 9 9 9 9 8 8 8 7 8 9 10
8 6 6 5 4 13 6 8 10 9 3 6 7 8 7 7 8 9 8 7 5 4 2 1 2 3 5 5 5 6 7 8 8 8 8 8 8 7 9 8 8 8 8 8
8 11 8 13 12 5 9 9 6 6 7 6 7 6 9 10 8 8 7 6 5 3 2 0 2 3 5 5 4 5 7 7 8 8 8 8 8 7 7 7 7 7 6 6
5 4 5 8 11 6 7 4 5 6 7 7 7 9 10 9 9 8 7 6 4 3 1 0 2 3 4 5 5 5 7 7 7 8 8 7 7 7 7 6 6 6 6 6
8 6 5 8 8 3 4 7 8 6 7 8 7 7 10 11 9 8 7 6 5 3 1 1 1 3 4 5 5 6 6 7 7 8 8 8 8 7 7 7 6 8 5 9
9 11 11 11 9 8 8 9 11 11 10 11 9 8 7 9 10 8 7 6 5 3 2 1 2 3 4 4 5 6 6 6 6 8 8 6 6 6 7 7 8 13 14 17
Wind_Direction
29 64 62 279 236 217 215 176 180 208 179 152 168 163 176 152 129 136 142 139 134 130 117 100 84 71 52 34 23 14 3 355 355 354 354 350 349 344 344 344 347 348 346 344
46 51 267 283 348 41 113 119 143 187 131 120 132 170 171 159 154 154 151 146 133 118 106 92 65 48 42 26 3 6 360 354 352 347 338 336 328 323 331 324 334 340 343 343
120 243 305 58 39 41 47 114 172 190 139 90 112 143 174 172 132 125 121 126 124 116 115 98 61 47 32 9 356 11 358 351 346 340 338 339 330 321 333 335 340 339 338 339
78 0 33 63 45 47 311 188 165 152 146 238 168 264 205 186 166 141 117 112 107 104 111 101 75 48 21 354 0 5 354 346 342 343 349 349 350 341 334 332 328 327 329 332
31 17 39 35 338 328 267 268 219 171 171 265 213 222 274 157 189 190 152 135 117 117 117 105 91 62 30 11 7 355 347 342 341 343 344 340 337 324 322 327 326 325 322 325
61 11 61 320 307 295 330 34 58 55 75 297 223 179 251 206 206 170 155 143 131 127 115 97 53 38 20 7 357 348 345 340 341 342 340 336 334 330 332 334 331 331 326 322
2 352 5 11 4 10 40 52 20 357 358 270 231 170 248 227 176 157 157 154 146 128 101 56 34 21 6 357 349 344 346 342 341 342 339 333 333 330 329 330 331 330 330 328
360 308 338 19 55 336 359 103 123 264 270 292 338 258 247 224 158 129 133 141 132 103 71 51 34 16 358 351 346 346 347 343 341 343 337 332 335 332 329 327 326 325 324 319
77 286 307 5 13 76 62 96 154 150 293 287 284 278 281 221 170 135 132 128 117 93 65 46 24 11 357 349 346 344 345 342 342 341 335 338 337 330 326 323 321 320 319 322
140 297 300 315 13 14 116 140 87 110 300 294 293 271 234 204 205 174 155 145 131 101 64 37 13 359 349 343 339 343 345 340 336 337 338 344 330 325 323 321 321 320 318 318
81 201 308 340 2 326 4 116 115 127 170 209 287 278 223 189 178 170 166 156 144 125 83 23 354 344 341 340 342 344 343 340 338 336 332 330 325 324 322 320 319 317 315 318
49 117 285 270 230 222 245 180 146 166 264 205 238 276 74 146 149 148 148 146 145 132 103 8 341 341 345 346 344 344 341 339 335 333 332 329 326 324 323 322 320 318 318 319
57 111 358 348 330 255 199 182 147 131 136 206 230 265 116 119 122 137 145 151 152 140 112 337 344 350 347 344 343 341 339 336 333 334 333 329 328 328 326 323 322 321 322 321
107 131 183 232 252 245 231 214 181 149 193 234 234 248 191 179 156 155 157 158 162 172 245 344 353 349 343 342 340 337 335 335 338 337 334 333 331 328 326 324 325 326 326 326
105 201 257 260 269 243 239 230 202 195 202 217 244 239 227 189 173 169 166 166 171 186 346 3 359 346 342 342 338 335 333 335 336 335 335 333 328 326 326 328 328 329 330 334
101 166 317 293 315 293 266 245 222 219 218 235 256 262 174 129 126 146 165 172 177 187 4 2 356 348 344 339 334 334 333 333 332 331 331 330 332 333 333 333 334 334 332 331
130 87 15 290 313 331 290 236 193 212 215 202 224 225 150 151 167 172 177 176 175 168 29 2 347 336 332 328 326 328 326 326 330 330 330 333 334 335 336 338 339 336 333 333
135 114 111 314 351 295 257 179 196 216 239 212 202 165 166 153 142 151 167 169 172 164 116 344 335 330 325 320 323 321 322 328 329 329 331 334 336 335 335 337 339 335 330 335
110 135 118 94 300 281 291 222 192 204 270 205 172 150 125 119 113 186 194 172 171 165 155 184 322 314 319 323 324 325 328 331 333 337 337 337 337 337 338 341 338 333 330 333
62 88 122 142 234 257 258 164 131 86 277 206 157 154 154 154 179 224 177 161 154 143 130 93 352 337 334 326 327 333 333 336 339 338 334 333 336 335 335 336 331 329 330 337
112 86 162 184 233 265 245 153 127 187 258 163 153 156 162 183 188 155 147 152 150 139 124 84 20 347 323 320 331 337 334 335 329 329 329 332 333 329 335 331 326 328 334 335
181 176 198 164 216 260 184 147 189 214 135 137 145 151 148 140 125 136 148 152 150 142 121 56 12 341 321 325 337 336 331 321 322 327 329 328 327 330 343 326 322 324 327 327
200 194 187 193 220 236 175 194 197 147 153 160 152 148 137 140 152 155 156 157 156 151 146 54 356 332 324 328 333 328 317 319 326 329 327 323 323 321 324 319 317 321 325 327
254 180 199 249 261 236 211 204 170 163 158 155 145 145 148 151 156 157 158 163 165 166 165 278 349 342 328 325 327 314 311 320 325 326 323 323 324 324 321 320 324 324 323 323
234 185 217 255 269 276 233 201 173 147 132 129 128 141 151 148 153 160 163 168 171 171 182 217 303 307 310 317 320 319 319 323 326 324 324 324 328 322 322 328 325 329 316 336
204 187 188 226 218 194 220 191 161 150 154 151 141 139 147 153 156 156 162 167 171 179 195 236 278 298 309 316 316 315 316 319 324 332 332 325 326 328 328 324 326 335 342 343